Campo, CA

10:36 PM PDT on May 27, 2017 (GMT -0700)
Campo

Weather History for KCZZ - December, 2012

Change the Weather History Date:

Saturday, December 8, 2012

  Actual Average Record
Temperature  
Mean Temperature 52 °F 48 °F  
Max Temperature 71 °F 63 °F 82 °F (2015)
Min Temperature 33 °F 33 °F 17 °F (1978)
Degree Days  
Heating Degree Days 13 17  
Month to date heating degree days 85 133  
Since 1 July heating degree days 514 703  
Cooling Degree Days 0 0  
Month to date cooling degree days 0 0  
Year to date cooling degree days 942 841  
Growing Degree Days 2 (Base 50)    
Moisture  
Dew Point 31 °F    
Average Humidity 47    
Maximum Humidity 76    
Minimum Humidity 18    
Precipitation  
Precipitation 0.00 in 0.07 in 0.72 in (1997)
Month to date precipitation 0.03 0.50  
Year to date precipitation 8.27 13.96  
Since 1 July precipitation 2.22  
Snow  
Snow 0.00 in - - ()
Month to date snowfall 0.0  
Year to date snowfall 0.0  
Snow Depth 0.00 in    
Sea Level Pressure  
Sea Level Pressure 29.90 in    
Wind  
Wind Speed 6 mph (NNE)    
Max Wind Speed 15 mph    
Max Gust Speed 22 mph    
T = Trace of Precipitation, MM = Missing Value Source: NWS Daily Summary

Daily Weather History Graph

Daily Weather History Graph

Search for Another Location

Airport or City:

Trip Planner

Search our weather history database for the weather conditions in past years. The results will help you decide how hot, cold, wet, or windy it might be!

Date:

Astronomy

Dec. 08, 2012 Rise Set
Actual Time 6:35 AM PST 4:40 PM PST
Civil Twilight 6:08 AM PST 5:07 PM PST
Nautical Twilight 5:38 AM PST 5:37 PM PST
Astronomical Twilight 5:08 AM PST 6:07 PM PST
Moon 1:19 AM PST (12/8) 1:00 PM PST (12/8)
Length of Visible Light 10h 58m
Length of Day
10h 04m
Waning Crescent, 27% of the Moon is Illuminated
Dec 8
Waning Crescent
Dec 13
New
Dec 19
First Quarter
Dec 28
Full
Jan 4
Last Quarter

Hourly Weather History & Observations

Time (PST) Temp. Windchill Dew Point Humidity Pressure Visibility Wind Dir Wind Speed Gust Speed Precip Events Conditions
12:52 AM 39.0 °F 34.0 °F 30.9 °F 73% 29.89 in - NE 6.9 mph - N/A   Unknown
1:52 AM 39.9 °F 35.8 °F 30.9 °F 70% 29.89 in - NE 5.8 mph - N/A   Unknown
2:52 AM 39.0 °F 34.8 °F 30.9 °F 73% 29.89 in - NE 5.8 mph - N/A   Unknown
3:52 AM 37.9 °F 32.7 °F 30.0 °F 73% 29.88 in - NE 6.9 mph - N/A   Unknown
4:52 AM 39.0 °F 35.7 °F 30.0 °F 70% 29.88 in - NNE 4.6 mph - N/A   Unknown
5:52 AM 34.0 °F 27.2 °F 27.0 °F 75% 29.92 in - NE 8.1 mph - N/A   Unknown
6:52 AM 35.1 °F 29.3 °F 27.0 °F 72% 29.95 in - NE 6.9 mph - N/A   Unknown
7:52 AM 45.0 °F 41.8 °F 32.0 °F 60% 29.94 in - NE 5.8 mph - N/A   Unknown
8:52 AM 57.9 °F - 34.0 °F 41% 29.92 in - Calm Calm - N/A   Unknown
9:52 AM 66.9 °F - 28.0 °F 23% 29.91 in - Calm Calm - N/A   Unknown
10:52 AM 69.1 °F - 24.1 °F 18% 29.89 in - Variable 4.6 mph - N/A   Unknown
11:52 AM 71.1 °F - 28.0 °F 20% 29.86 in - West 12.7 mph - N/A   Unknown
12:52 PM 70.0 °F - 30.9 °F 24% 29.86 in - West 9.2 mph - N/A   Unknown
1:52 PM 69.1 °F - 32.0 °F 25% 29.85 in - West 9.2 mph - N/A   Unknown
2:52 PM 68.0 °F - 33.1 °F 27% 29.85 in - West 9.2 mph - N/A   Unknown
3:52 PM 66.0 °F - 35.1 °F 32% 29.86 in - West 9.2 mph - N/A   Unknown
4:52 PM 60.1 °F - 36.0 °F 41% 29.86 in - Calm Calm - N/A   Unknown
5:52 PM 53.1 °F - 35.1 °F 50% 29.90 in - NNW 3.5 mph - N/A   Unknown
6:52 PM 46.9 °F - 33.1 °F 59% 29.93 in - Calm Calm - N/A   Unknown
7:52 PM 44.1 °F 41.5 °F 32.0 °F 63% 29.92 in - NE 4.6 mph - N/A   Unknown
8:52 PM 42.1 °F 39.2 °F 30.9 °F 65% 29.92 in - NE 4.6 mph - N/A   Unknown
9:52 PM 37.9 °F 33.5 °F 28.9 °F 70% 29.92 in - ENE 5.8 mph - N/A   Unknown
10:52 PM 39.0 °F - 28.0 °F 65% 29.92 in - Calm Calm - N/A   Unknown
11:52 PM 34.0 °F 28.0 °F 26.1 °F 73% 29.93 in - NE 6.9 mph - N/A   Unknown